Location: Newark
(9.4667°S, 159.8167°E)
Time: 13:25:21
(UTC+00:00)

Vanguard 1 - Pass Details

Date: 16 November 2019
Orbit: 652 x 3832 km, 34.3° (Epoch: 09 December)

Event Time Altitude Azimuth Distance (km) Brightness Sun altitude
Rises 14:29:49 0° 246° (WSW) 6,434 14.2 -54.9°
Reaches altitude 10° 14:34:29 10° 236° (SW) 5,834 13.9 -54.2°
Maximum altitude 14:51:41 33° 176° (S) 5,083 13.7 -51.5°
Drops below altitude 10° 15:11:47 10° 118° (ESE) 6,752 14.8 -48.0°
Sets 15:17:47 0° 108° (ESE) 7,515 15.2 -46.9°
